Regional Weather Roundup
Issued by NWS Goodland, KS

Home | Current Version | Previous Version | Graphics & Text | Print | Product List | Glossary On
Versions: 1 2 3 4 5 6 7 8 9 10 11 12 13 14 15 16 17 18 19 20 21 22 23 24 25 26 27 28 29 30 31 32 33 34 35 36 37 38 39 40 41 42 43 44 45 46 47 48 49 50
000
ASUS43 KGLD 250859
RWRGLD

GOODLAND FORECAST AREA HOURLY WEATHER ROUNDUP
NATIONAL WEATHER SERVICE GOODLAND KS
300 AM MDT THU AUG 25 2016

...OFFICIAL OBSERVATIONS...

CITY           SKY/WX    TMP DP  RH WIND       PRES   REMARKS
GOODLAND KS    CLOUDY    54  49  83 N3        30.18F
HILL CITY KS   RAIN      59  58  96 CALM      30.16S FOG
IMPERIAL NEB   MOCLDY    56  47  71 CALM      30.18F
MCCOOK NEB     CLOUDY    57  52  83 SW5       30.16S
AKRON CO       CLOUDY    51  38  60 S7        30.23R
BURLINGTON CO  PTCLDY    54  43  66 NE5       30.20F
LIMON CO       CLOUDY    42  33  70 N3        30.24F
$$

...UNOFFICIAL OBSERVATIONS...

CITY           SKY/WX    TMP DP  RH WIND       PRES   REMARKS
COLBY KS       PTCLDY    59  54  82 N5        30.19S
NORTON KS      MOCLDY    57  50  77 SE3       30.16S
SHARON SPRINGS   N/A     56  53  90 CALM        N/A
KIT CARSON CO    N/A     55  42  62 CALM        N/A
YUMA CO          N/A     46  40  81 CALM        N/A
$$




USA.gov is the U.S. government's official web portal to all federal, state and local government web resources and services.